Location: Unspecified
(0.0000°N, 0.0000°E)
Time: 01:52:52
(UTC+00:00)

N. Korean satellite - Pass Details

Date: 21 March 2018
Orbit: 459 x 511 km, 97.2° (Epoch: 17 June)

Event Time Altitude Azimuth Distance (km) Brightness Sun altitude
Rises 18:44:35 0° 189° (S) 2,519 10.3 -9.4°
Reaches altitude 10° 18:46:51 10° 202° (SSW) 1,648 9.5 -9.9°
Maximum altitude 18:49:50 26° 259° (W) 992 9.1 -10.7°
Drops below altitude 10° 18:52:51 10° 317° (NW) 1,667 9.9 -11.4°
Sets 18:55:10 0° 330° (NNW) 2,555 10.7 -12.0°
